Time,TemperatureF,DewpointF,PressureIn,WindDirection,WindDirectionDegrees,WindSpeedMPH,WindSpeedGustMPH,Humidity,HourlyPrecipIn,Conditions,Clouds,dailyrainin,SoftwareType,DateUTC
2013-06-01 00:01:00,63.2,58.3,29.54,WSW,257,2.0,3.0,84,0.00,,CLR,0.00,VWS V14.01,2013-06-01 05:01:00,
2013-06-01 00:06:00,63.1,58.5,29.54,SW,236,2.0,4.0,85,0.00,,CLR,0.00,VWS V14.01,2013-06-01 05:06:00,
2013-06-01 00:11:00,62.9,58.7,29.54,SW,224,0.0,4.0,86,0.00,,CLR,0.00,VWS V14.01,2013-06-01 05:11:00,
2013-06-01 00:16:00,62.8,58.6,29.54,SSW,210,0.0,4.0,86,0.00,,CLR,0.00,VWS V14.01,2013-06-01 05:16:00,
2013-06-01 00:21:00,62.5,58.9,29.54,SSE,148,2.0,4.0,88,0.00,,CLR,0.00,VWS V14.01,2013-06-01 05:21:00,
2013-06-01 00:26:00,61.8,58.8,29.54,SE,138,1.0,4.0,90,0.00,,CLR,0.00,VWS V14.01,2013-06-01 05:26:00,
2013-06-01 00:31:00,61.3,59.0,29.53,ESE,123,2.0,2.0,92,0.00,,CLR,0.00,VWS V14.01,2013-06-01 05:31:00,
2013-06-01 00:36:00,61.0,59.0,29.53,SE,143,2.0,4.0,93,0.00,,CLR,0.00,VWS V14.01,2013-06-01 05:36:00,
2013-06-01 00:41:00,61.0,59.0,29.53,SSE,158,2.0,5.0,93,0.00,,CLR,0.00,VWS V14.01,2013-06-01 05:41:00,
2013-06-01 00:46:00,61.2,59.2,29.53,SE,145,4.0,5.0,93,0.00,,CLR,0.00,VWS V14.01,2013-06-01 05:46:00,
2013-06-01 00:51:00,61.4,58.8,29.53,WSW,245,2.0,5.0,91,0.00,,CLR,0.00,VWS V14.01,2013-06-01 05:51:00,
2013-06-01 00:56:00,61.4,58.1,29.53,West,280,3.0,5.0,89,0.00,,CLR,0.00,VWS V14.01,2013-06-01 05:56:00,
2013-06-01 01:01:00,61.8,57.2,29.53,West,280,1.0,2.0,85,0.00,,CLR,0.00,VWS V14.01,2013-06-01 06:01:00,
2013-06-01 01:06:00,62.2,57.0,29.53,SW,232,2.0,4.0,83,0.00,,CLR,0.00,VWS V14.01,2013-06-01 06:06:00,
2013-06-01 01:11:00,62.3,56.7,29.53,WSW,256,0.0,4.0,82,0.00,,CLR,0.00,VWS V14.01,2013-06-01 06:11:00,
2013-06-01 01:16:00,62.5,55.9,29.53,WSW,256,3.0,5.0,79,0.00,,CLR,0.00,VWS V14.01,2013-06-01 06:16:00,
2013-06-01 01:21:00,62.4,58.2,29.53,WSW,245,1.0,5.0,86,0.00,,CLR,0.00,VWS V14.01,2013-06-01 06:21:00,
2013-06-01 01:26:00,62.1,59.1,29.53,West,278,1.0,5.0,90,0.00,,CLR,0.00,VWS V14.01,2013-06-01 06:26:00,
2013-06-01 01:31:00,61.7,57.8,29.53,West,281,2.0,3.0,87,0.00,,CLR,0.00,VWS V14.01,2013-06-01 06:31:00,
2013-06-01 01:36:00,61.3,57.7,29.53,West,273,0.0,3.0,88,0.00,,CLR,0.00,VWS V14.01,2013-06-01 06:36:00,
2013-06-01 01:41:00,61.0,58.4,29.54,West,276,1.0,3.0,91,0.00,,CLR,0.00,VWS V14.01,2013-06-01 06:41:00,
2013-06-01 01:46:00,60.9,58.0,29.53,WSW,250,0.0,3.0,90,0.00,,CLR,0.00,VWS V14.01,2013-06-01 06:46:00,
2013-06-01 01:51:00,60.6,57.0,29.54,West,262,2.0,3.0,88,0.00,,CLR,0.00,VWS V14.01,2013-06-01 06:51:00,
2013-06-01 01:56:00,60.4,56.5,29.54,WSW,244,3.0,4.0,87,0.00,,CLR,0.00,VWS V14.01,2013-06-01 06:56:00,
2013-06-01 02:01:00,60.3,55.5,29.54,WSW,249,4.0,4.0,84,0.00,,SCT090,0.00,VWS V14.01,2013-06-01 07:01:00,
2013-06-01 02:06:00,60.1,54.6,29.54,WSW,250,4.0,4.0,82,0.00,,SCT090,0.00,VWS V14.01,2013-06-01 07:06:00,
2013-06-01 02:11:00,59.9,53.7,29.54,WNW,294,2.0,4.0,80,0.00,,SCT090,0.00,VWS V14.01,2013-06-01 07:11:00,
2013-06-01 02:16:00,59.7,53.5,29.54,WSW,256,1.0,4.0,80,0.00,,SCT090,0.00,VWS V14.01,2013-06-01 07:16:00,
2013-06-01 02:21:00,59.3,53.1,29.53,West,263,1.0,4.0,80,0.00,,SCT090,0.00,VWS V14.01,2013-06-01 07:21:00,
2013-06-01 02:26:00,59.1,52.9,29.53,West,278,0.0,4.0,80,0.00,,SCT090,0.00,VWS V14.01,2013-06-01 07:26:00,
2013-06-01 02:31:00,59.0,52.8,29.53,WNW,284,2.0,2.0,80,0.00,,SCT090,0.00,VWS V14.01,2013-06-01 07:31:00,
2013-06-01 02:36:00,59.1,52.6,29.53,West,275,0.0,4.0,79,0.00,,SCT090,0.00,VWS V14.01,2013-06-01 07:36:00,
2013-06-01 02:41:00,59.0,52.5,29.53,West,270,0.0,4.0,79,0.00,,SCT090,0.00,VWS V14.01,2013-06-01 07:41:00,
2013-06-01 02:46:00,58.9,52.4,29.53,WNW,288,1.0,4.0,79,0.00,,SCT090,0.00,VWS V14.01,2013-06-01 07:46:00,
2013-06-01 02:51:00,58.7,52.2,29.52,West,278,1.0,4.0,79,0.00,,SCT090,0.00,VWS V14.01,2013-06-01 07:51:00,
2013-06-01 02:56:00,58.7,52.2,29.52,WNW,282,1.0,4.0,79,0.00,,SCT090,0.00,VWS V14.01,2013-06-01 07:56:00,
2013-06-01 03:01:00,58.8,52.0,29.52,WSW,256,2.0,2.0,78,0.00,,FEW095,0.00,VWS V14.01,2013-06-01 08:01:00,
2013-06-01 03:06:00,58.7,51.9,29.52,WSW,253,1.0,3.0,78,0.00,,FEW095,0.00,VWS V14.01,2013-06-01 08:06:00,
2013-06-01 03:11:00,58.5,52.0,29.52,WSW,256,1.0,3.0,79,0.00,,FEW095,0.00,VWS V14.01,2013-06-01 08:11:00,
2013-06-01 03:16:00,58.3,51.8,29.52,West,266,2.0,4.0,79,0.00,,FEW095,0.00,VWS V14.01,2013-06-01 08:16:00,
2013-06-01 03:21:00,58.1,52.0,29.52,WNW,286,2.0,4.0,80,0.00,,FEW095,0.00,VWS V14.01,2013-06-01 08:21:00,
2013-06-01 03:26:00,57.9,51.8,29.52,West,270,2.0,4.0,80,0.00,,FEW095,0.00,VWS V14.01,2013-06-01 08:26:00,
2013-06-01 03:31:00,57.8,51.7,29.52,West,266,4.0,4.0,80,0.00,,FEW095,0.00,VWS V14.01,2013-06-01 08:31:00,
2013-06-01 03:36:00,57.7,51.6,29.51,West,278,0.0,4.0,80,0.00,,FEW095,0.00,VWS V14.01,2013-06-01 08:36:00,
2013-06-01 03:41:00,57.7,51.6,29.52,West,267,1.0,4.0,80,0.00,,FEW095,0.00,VWS V14.01,2013-06-01 08:41:00,
2013-06-01 03:46:00,57.5,51.4,29.51,WSW,257,3.0,5.0,80,0.00,,FEW095,0.00,VWS V14.01,2013-06-01 08:46:00,
2013-06-01 03:51:00,57.5,51.4,29.51,West,276,3.0,5.0,80,0.00,,FEW095,0.00,VWS V14.01,2013-06-01 08:51:00,
2013-06-01 03:56:00,57.4,51.6,29.51,West,266,1.0,5.0,81,0.00,,FEW095,0.00,VWS V14.01,2013-06-01 08:56:00,
2013-06-01 04:01:00,57.5,51.4,29.51,NNW,330,1.0,2.0,80,0.00,,FEW095,0.00,VWS V14.01,2013-06-01 09:01:00,
2013-06-01 04:06:00,57.7,51.6,29.51,West,270,2.0,6.0,80,0.00,,CLR,0.00,VWS V14.01,2013-06-01 09:06:00,
2013-06-01 04:11:00,58.0,51.9,29.52,West,263,3.0,6.0,80,0.00,,CLR,0.00,VWS V14.01,2013-06-01 09:11:00,
2013-06-01 04:16:00,57.9,51.8,29.52,WSW,245,2.0,6.0,80,0.00,,CLR,0.00,VWS V14.01,2013-06-01 09:16:00,
2013-06-01 04:21:00,57.4,51.6,29.52,West,263,1.0,6.0,81,0.00,,CLR,0.00,VWS V14.01,2013-06-01 09:21:00,
2013-06-01 04:26:00,56.9,51.5,29.52,WSW,256,2.0,6.0,82,0.00,,CLR,0.00,VWS V14.01,2013-06-01 09:26:00,
2013-06-01 04:31:00,56.7,51.3,29.52,WSW,249,1.0,1.0,82,0.00,,CLR,0.00,VWS V14.01,2013-06-01 09:31:00,
2013-06-01 04:36:00,56.4,51.3,29.52,WSW,256,0.0,2.0,83,0.00,,CLR,0.00,VWS V14.01,2013-06-01 09:36:00,
2013-06-01 04:41:00,56.0,51.2,29.52,WSW,253,0.0,2.0,84,0.00,,CLR,0.00,VWS V14.01,2013-06-01 09:41:00,
2013-06-01 04:46:00,55.5,51.1,29.53,WSW,245,0.0,2.0,85,0.00,,CLR,0.00,VWS V14.01,2013-06-01 09:46:00,
2013-06-01 04:51:00,54.9,50.8,29.53,West,266,1.0,2.0,86,0.00,,CLR,0.00,VWS V14.01,2013-06-01 09:51:00,
2013-06-01 04:56:00,54.6,50.8,29.53,WSW,250,0.0,2.0,87,0.00,,CLR,0.00,VWS V14.01,2013-06-01 09:56:00,
2013-06-01 05:01:00,54.6,51.1,29.53,WSW,241,2.0,2.0,88,0.00,,CLR,0.00,VWS V14.01,2013-06-01 10:01:00,
2013-06-01 05:06:00,54.7,50.9,29.53,WSW,257,0.0,2.0,87,0.00,,CLR,0.00,VWS V14.01,2013-06-01 10:06:00,
2013-06-01 05:11:00,54.6,50.8,29.53,SW,232,0.0,2.0,87,0.00,,CLR,0.00,VWS V14.01,2013-06-01 10:11:00,
2013-06-01 05:16:00,54.2,50.7,29.53,WSW,257,0.0,2.0,88,0.00,,CLR,0.00,VWS V14.01,2013-06-01 10:16:00,
2013-06-01 05:21:00,54.0,50.5,29.54,SW,229,0.0,2.0,88,0.00,,CLR,0.00,VWS V14.01,2013-06-01 10:21:00,
2013-06-01 05:25:00,53.8,50.6,29.54,SW,235,1.0,2.0,89,0.00,,CLR,0.00,VWS V14.01,2013-06-01 10:25:00,
2013-06-01 05:30:00,53.7,50.5,29.54,WSW,251,1.0,2.0,89,0.00,,CLR,0.00,VWS V14.01,2013-06-01 10:30:00,
2013-06-01 05:35:00,53.7,50.5,29.54,WSW,251,0.0,2.0,89,0.00,,CLR,0.00,VWS V14.01,2013-06-01 10:35:00,
2013-06-01 05:40:00,53.9,50.7,29.54,WSW,252,3.0,3.0,89,0.00,,CLR,0.00,VWS V14.01,2013-06-01 10:40:00,
2013-06-01 05:45:00,54.3,50.8,29.54,West,259,4.0,6.0,88,0.00,,CLR,0.00,VWS V14.01,2013-06-01 10:45:00,
2013-06-01 05:50:00,54.8,51.0,29.54,WSW,249,6.0,7.0,87,0.00,,CLR,0.00,VWS V14.01,2013-06-01 10:50:00,
2013-06-01 05:55:00,54.9,50.8,29.55,WSW,246,3.0,7.0,86,0.00,,CLR,0.00,VWS V14.01,2013-06-01 10:55:00,
2013-06-01 06:00:00,54.7,50.6,29.55,WSW,249,3.0,7.0,86,0.00,,CLR,0.00,VWS V14.01,2013-06-01 11:00:00,
2013-06-01 06:05:00,54.7,50.9,29.54,WSW,252,3.0,5.0,87,0.00,,CLR,0.00,VWS V14.01,2013-06-01 11:05:00,
2013-06-01 06:10:00,54.7,50.9,29.55,WSW,250,2.0,5.0,87,0.00,,CLR,0.00,VWS V14.01,2013-06-01 11:10:00,
2013-06-01 06:15:00,54.6,50.8,29.55,WSW,253,4.0,5.0,87,0.00,,CLR,0.00,VWS V14.01,2013-06-01 11:15:00,
2013-06-01 06:20:00,54.8,51.0,29.55,WSW,249,2.0,6.0,87,0.00,,CLR,0.00,VWS V14.01,2013-06-01 11:20:00,
2013-06-01 06:25:00,54.8,51.0,29.55,WSW,252,3.0,7.0,87,0.00,,CLR,0.00,VWS V14.01,2013-06-01 11:25:00,
2013-06-01 06:30:00,54.8,51.0,29.56,SW,229,5.0,7.0,87,0.00,,CLR,0.00,VWS V14.01,2013-06-01 11:30:00,
2013-06-01 06:35:00,54.8,51.3,29.55,West,281,4.0,6.0,88,0.00,,CLR,0.00,VWS V14.01,2013-06-01 11:35:00,
2013-06-01 06:40:00,54.9,51.4,29.55,West,270,3.0,6.0,88,0.00,,CLR,0.00,VWS V14.01,2013-06-01 11:40:00,
2013-06-01 06:45:00,55.0,51.2,29.55,WSW,249,4.0,8.0,87,0.00,,CLR,0.00,VWS V14.01,2013-06-01 11:45:00,
2013-06-01 06:50:00,55.2,51.4,29.55,WSW,253,4.0,8.0,87,0.00,,CLR,0.00,VWS V14.01,2013-06-01 11:50:00,
2013-06-01 06:55:00,55.4,51.3,29.55,SW,234,6.0,8.0,86,0.00,,CLR,0.00,VWS V14.01,2013-06-01 11:55:00,
2013-06-01 07:00:00,55.7,51.6,29.55,WSW,257,4.0,8.0,86,0.00,,CLR,0.00,VWS V14.01,2013-06-01 12:00:00,
2013-06-01 07:05:00,56.0,51.6,29.55,WNW,302,4.0,8.0,85,0.00,,CLR,0.00,VWS V14.01,2013-06-01 12:05:00,
2013-06-01 07:10:00,56.2,51.4,29.55,WNW,288,6.0,9.0,84,0.00,,CLR,0.00,VWS V14.01,2013-06-01 12:10:00,
2013-06-01 07:15:00,56.5,51.7,29.56,West,270,5.0,9.0,84,0.00,,CLR,0.00,VWS V14.01,2013-06-01 12:15:00,
2013-06-01 07:20:00,56.6,51.5,29.56,WSW,248,8.0,11.0,83,0.00,,CLR,0.00,VWS V14.01,2013-06-01 12:20:00,
2013-06-01 07:25:00,56.7,51.9,29.55,SW,231,4.0,11.0,84,0.00,,CLR,0.00,VWS V14.01,2013-06-01 12:25:00,
2013-06-01 07:30:00,56.8,52.0,29.55,West,280,5.0,11.0,84,0.00,,CLR,0.00,VWS V14.01,2013-06-01 12:30:00,
2013-06-01 07:35:00,57.1,52.0,29.56,WSW,246,6.0,9.0,83,0.00,,CLR,0.00,VWS V14.01,2013-06-01 12:35:00,
2013-06-01 07:40:00,57.4,52.6,29.57,WSW,239,2.0,9.0,84,0.00,,CLR,0.00,VWS V14.01,2013-06-01 12:40:00,
2013-06-01 07:45:00,57.7,52.6,29.56,WSW,253,8.0,9.0,83,0.00,,CLR,0.00,VWS V14.01,2013-06-01 12:45:00,
2013-06-01 07:50:00,58.1,53.0,29.57,WSW,239,5.0,9.0,83,0.00,,CLR,0.00,VWS V14.01,2013-06-01 12:50:00,
2013-06-01 07:55:00,58.4,52.6,29.57,WSW,240,5.0,11.0,81,0.00,,CLR,0.00,VWS V14.01,2013-06-01 12:55:00,
2013-06-01 08:00:00,58.7,52.9,29.57,WSW,255,3.0,11.0,81,0.00,,CLR,0.00,VWS V14.01,2013-06-01 13:00:00,
2013-06-01 08:05:00,59.0,53.2,29.57,WSW,239,4.0,9.0,81,0.00,,CLR,0.00,VWS V14.01,2013-06-01 13:05:00,
2013-06-01 08:10:00,59.2,53.0,29.57,WSW,239,4.0,10.0,80,0.00,,CLR,0.00,VWS V14.01,2013-06-01 13:10:00,
2013-06-01 08:15:00,59.1,52.9,29.57,SW,228,6.0,10.0,80,0.00,,CLR,0.00,VWS V14.01,2013-06-01 13:15:00,
2013-06-01 08:20:00,59.3,53.1,29.57,West,277,5.0,10.0,80,0.00,,CLR,0.00,VWS V14.01,2013-06-01 13:20:00,
2013-06-01 08:25:00,59.6,53.1,29.57,West,269,3.0,10.0,79,0.00,,CLR,0.00,VWS V14.01,2013-06-01 13:25:00,
2013-06-01 08:30:00,59.9,53.7,29.57,WNW,285,5.0,10.0,80,0.00,,CLR,0.00,VWS V14.01,2013-06-01 13:30:00,
2013-06-01 08:35:00,60.1,53.6,29.58,West,262,3.0,8.0,79,0.00,,CLR,0.00,VWS V14.01,2013-06-01 13:35:00,
2013-06-01 08:40:00,60.6,54.1,29.58,West,281,3.0,8.0,79,0.00,,CLR,0.00,VWS V14.01,2013-06-01 13:40:00,
2013-06-01 08:45:00,60.6,53.7,29.58,West,280,6.0,9.0,78,0.00,,CLR,0.00,VWS V14.01,2013-06-01 13:45:00,
2013-06-01 08:50:00,60.5,53.6,29.58,West,281,4.0,11.0,78,0.00,,CLR,0.00,VWS V14.01,2013-06-01 13:50:00,
2013-06-01 08:55:00,60.3,53.1,29.58,West,277,4.0,11.0,77,0.00,,CLR,0.00,VWS V14.01,2013-06-01 13:55:00,
2013-06-01 09:00:00,60.5,53.3,29.58,WSW,243,5.0,11.0,77,0.00,,CLR,0.00,VWS V14.01,2013-06-01 14:00:00,
2013-06-01 09:05:00,60.5,53.6,29.58,West,264,5.0,10.0,78,0.00,,CLR,0.00,VWS V14.01,2013-06-01 14:05:00,
2013-06-01 09:10:00,60.5,53.6,29.59,SSW,205,3.0,10.0,78,0.00,,CLR,0.00,VWS V14.01,2013-06-01 14:10:00,
2013-06-01 09:15:00,60.2,53.7,29.59,WSW,238,6.0,10.0,79,0.00,,CLR,0.00,VWS V14.01,2013-06-01 14:15:00,
2013-06-01 09:20:00,60.2,53.3,29.59,WSW,239,5.0,10.0,78,0.00,,CLR,0.00,VWS V14.01,2013-06-01 14:20:00,
2013-06-01 09:25:00,60.8,53.9,29.59,WNW,283,3.0,10.0,78,0.00,,CLR,0.00,VWS V14.01,2013-06-01 14:25:00,
2013-06-01 09:30:00,61.2,53.6,29.59,WSW,249,2.0,10.0,76,0.00,,CLR,0.00,VWS V14.01,2013-06-01 14:30:00,
2013-06-01 09:35:00,61.2,53.6,29.59,West,264,5.0,9.0,76,0.00,,CLR,0.00,VWS V14.01,2013-06-01 14:35:00,
2013-06-01 09:40:00,61.1,54.2,29.59,West,278,4.0,9.0,78,0.00,,CLR,0.00,VWS V14.01,2013-06-01 14:40:00,
2013-06-01 09:45:00,61.0,54.1,29.59,WSW,255,6.0,9.0,78,0.00,,BKN022,0.00,VWS V14.01,2013-06-01 14:45:00,
2013-06-01 09:50:00,60.9,53.7,29.59,West,274,5.0,9.0,77,0.00,,BKN022,0.00,VWS V14.01,2013-06-01 14:50:00,
2013-06-01 09:55:00,61.0,53.4,29.59,West,264,4.0,9.0,76,0.00,,BKN022,0.00,VWS V14.01,2013-06-01 14:55:00,
2013-06-01 10:00:00,61.1,54.2,29.59,West,259,0.0,9.0,78,0.00,,BKN022,0.00,VWS V14.01,2013-06-01 15:00:00,
2013-06-01 10:05:00,61.1,53.8,29.59,SSW,211,2.0,10.0,77,0.00,,BKN029,0.00,VWS V14.01,2013-06-01 15:05:00,
2013-06-01 10:10:00,61.2,53.6,29.59,West,259,6.0,10.0,76,0.00,,BKN029,0.00,VWS V14.01,2013-06-01 15:10:00,
2013-06-01 10:15:00,61.6,54.3,29.59,SW,217,1.0,10.0,77,0.00,,BKN029,0.00,VWS V14.01,2013-06-01 15:15:00,
2013-06-01 10:20:00,62.1,54.5,29.59,West,266,7.0,10.0,76,0.00,,BKN029,0.00,VWS V14.01,2013-06-01 15:20:00,
2013-06-01 10:25:00,61.7,53.3,29.60,West,267,4.0,10.0,74,0.00,,BKN029,0.00,VWS V14.01,2013-06-01 15:25:00,
2013-06-01 10:30:00,61.7,54.4,29.60,SW,218,5.0,11.0,77,0.00,,BKN029,0.00,VWS V14.01,2013-06-01 15:30:00,
2013-06-01 10:35:00,61.8,54.2,29.60,WSW,253,9.0,10.0,76,0.00,,BKN029,0.00,VWS V14.01,2013-06-01 15:35:00,
2013-06-01 10:40:00,61.3,53.7,29.60,West,266,7.0,10.0,76,0.00,,BKN029,0.00,VWS V14.01,2013-06-01 15:40:00,
2013-06-01 10:45:00,61.1,54.2,29.60,WSW,255,5.0,10.0,78,0.00,,BKN029,0.00,VWS V14.01,2013-06-01 15:45:00,
2013-06-01 10:50:00,60.8,53.9,29.60,WNW,297,4.0,10.0,78,0.00,,BKN029,0.00,VWS V14.01,2013-06-01 15:50:00,
2013-06-01 10:55:00,60.5,54.3,29.60,WSW,250,5.0,10.0,80,0.00,,BKN029,0.00,VWS V14.01,2013-06-01 15:55:00,
2013-06-01 11:00:00,60.5,55.0,29.61,West,259,4.0,10.0,82,0.00,,BKN029,0.00,VWS V14.01,2013-06-01 16:00:00,
2013-06-01 11:05:00,60.5,54.0,29.61,West,259,4.0,9.0,79,0.00,,OVC032,0.00,VWS V14.01,2013-06-01 16:05:00,
2013-06-01 11:10:00,60.5,54.0,29.60,WSW,256,4.0,9.0,79,0.00,,OVC032,0.00,VWS V14.01,2013-06-01 16:10:00,
2013-06-01 11:15:00,60.6,54.1,29.61,West,267,3.0,9.0,79,0.00,,OVC032,0.00,VWS V14.01,2013-06-01 16:15:00,
2013-06-01 11:20:00,60.8,54.6,29.61,WSW,242,7.0,9.0,80,0.00,,OVC032,0.00,VWS V14.01,2013-06-01 16:20:00,
2013-06-01 11:25:00,60.8,54.6,29.61,WSW,245,4.0,9.0,80,0.00,,OVC031,0.00,VWS V14.01,2013-06-01 16:25:00,
2013-06-01 11:30:00,60.8,54.6,29.61,WSW,250,5.0,9.0,80,0.00,,OVC031,0.00,VWS V14.01,2013-06-01 16:30:00,
2013-06-01 11:35:00,60.8,54.6,29.62,West,269,4.0,6.0,80,0.00,,OVC031,0.00,VWS V14.01,2013-06-01 16:35:00,
2013-06-01 11:40:00,60.8,54.9,29.62,SSW,212,1.0,7.0,81,0.00,,OVC031,0.00,VWS V14.01,2013-06-01 16:40:00,
2013-06-01 11:45:00,61.2,55.7,29.62,WNW,285,3.0,7.0,82,0.00,,OVC031,0.00,VWS V14.01,2013-06-01 16:45:00,
2013-06-01 11:50:00,61.8,54.9,29.62,West,278,5.0,10.0,78,0.00,,OVC031,0.00,VWS V14.01,2013-06-01 16:50:00,
2013-06-01 11:55:00,62.3,55.7,29.62,WNW,290,1.0,10.0,79,0.00,,OVC031,0.00,VWS V14.01,2013-06-01 16:55:00,
2013-06-01 12:00:00,62.8,55.5,29.62,NW,308,2.0,10.0,77,0.00,,OVC031,0.00,VWS V14.01,2013-06-01 17:00:00,
2013-06-01 12:05:00,63.3,56.0,29.62,NW,305,3.0,6.0,77,0.00,,OVC029,0.00,VWS V14.01,2013-06-01 17:05:00,
2013-06-01 12:10:00,63.9,56.6,29.62,WNW,282,1.0,6.0,77,0.00,,OVC029,0.00,VWS V14.01,2013-06-01 17:10:00,
2013-06-01 12:15:00,64.7,58.0,29.62,West,278,2.0,6.0,79,0.00,,OVC029,0.00,VWS V14.01,2013-06-01 17:15:00,
2013-06-01 12:20:00,64.5,56.0,29.63,WNW,293,2.0,10.0,74,0.00,,OVC029,0.00,VWS V14.01,2013-06-01 17:20:00,
2013-06-01 12:25:00,64.7,57.0,29.62,WSW,258,2.0,10.0,76,0.00,,OVC029,0.00,VWS V14.01,2013-06-01 17:25:00,
2013-06-01 12:30:00,64.4,55.9,29.62,NW,310,3.0,10.0,74,0.00,,OVC029,0.00,VWS V14.01,2013-06-01 17:30:00,
2013-06-01 12:35:00,64.6,57.2,29.63,NW,316,1.0,5.0,77,0.00,,OVC029,0.00,VWS V14.01,2013-06-01 17:35:00,
2013-06-01 12:40:00,64.9,56.8,29.63,West,269,1.0,5.0,75,0.00,,OVC029,0.00,VWS V14.01,2013-06-01 17:40:00,
2013-06-01 12:45:00,64.7,56.6,29.63,North,7,2.0,8.0,75,0.00,,OVC029,0.00,VWS V14.01,2013-06-01 17:45:00,
2013-06-01 12:50:00,65.0,56.9,29.63,WNW,296,1.0,8.0,75,0.00,,OVC029,0.00,VWS V14.01,2013-06-01 17:50:00,
2013-06-01 12:55:00,65.0,57.3,29.63,North,4,1.0,8.0,76,0.00,,OVC029,0.00,VWS V14.01,2013-06-01 17:55:00,
2013-06-01 13:00:00,65.2,56.7,29.63,West,259,2.0,8.0,74,0.00,,OVC035,0.00,VWS V14.01,2013-06-01 18:00:00,
2013-06-01 13:05:00,65.4,56.5,29.63,WNW,289,1.0,8.0,73,0.00,,OVC035,0.00,VWS V14.01,2013-06-01 18:05:00,
2013-06-01 13:10:00,65.2,56.3,29.63,NW,306,1.0,8.0,73,0.00,,OVC035,0.00,VWS V14.01,2013-06-01 18:10:00,
2013-06-01 13:15:00,65.5,57.7,29.63,NNW,340,1.0,8.0,76,0.00,,OVC035,0.00,VWS V14.01,2013-06-01 18:15:00,
2013-06-01 13:20:00,65.8,57.3,29.63,SW,219,1.0,8.0,74,0.00,,OVC035,0.00,VWS V14.01,2013-06-01 18:20:00,
2013-06-01 13:25:00,65.7,56.8,29.63,WNW,293,1.0,8.0,73,0.00,,OVC035,0.00,VWS V14.01,2013-06-01 18:25:00,
2013-06-01 13:30:00,66.2,57.3,29.63,WNW,285,2.0,8.0,73,0.00,,OVC035,0.00,VWS V14.01,2013-06-01 18:30:00,
2013-06-01 13:35:00,66.5,58.3,29.63,WNW,298,2.0,5.0,75,0.00,,OVC035,0.00,VWS V14.01,2013-06-01 18:35:00,
2013-06-01 13:40:00,66.1,57.2,29.63,WNW,302,2.0,6.0,73,0.00,,OVC085,0.00,VWS V14.01,2013-06-01 18:40:00,
2013-06-01 13:45:00,65.7,56.8,29.63,NNW,329,5.0,7.0,73,0.00,,OVC085,0.00,VWS V14.01,2013-06-01 18:45:00,
2013-06-01 13:50:00,65.7,57.6,29.63,NW,304,3.0,7.0,75,0.00,,OVC090,0.00,VWS V14.01,2013-06-01 18:50:00,
2013-06-01 13:55:00,65.7,57.2,29.63,WNW,296,2.0,7.0,74,0.00,,OVC085,0.00,VWS V14.01,2013-06-01 18:55:00,
2013-06-01 14:00:00,65.7,57.2,29.63,NW,319,2.0,7.0,74,0.00,,OVC085,0.00,VWS V14.01,2013-06-01 19:00:00,
2013-06-01 14:05:00,65.6,58.2,29.63,NW,314,2.0,11.0,77,0.00,,OVC090,0.00,VWS V14.01,2013-06-01 19:05:00,
2013-06-01 14:10:00,65.6,57.5,29.64,WNW,302,3.0,11.0,75,0.00,,OVC090,0.00,VWS V14.01,2013-06-01 19:10:00,
2013-06-01 14:15:00,65.4,58.0,29.64,WNW,298,3.0,11.0,77,0.00,,OVC090,0.00,VWS V14.01,2013-06-01 19:15:00,
2013-06-01 14:20:00,65.4,58.0,29.64,WNW,288,4.0,11.0,77,0.00,,OVC090,0.00,VWS V14.01,2013-06-01 19:20:00,
2013-06-01 14:25:00,65.4,57.7,29.64,NW,306,2.0,11.0,76,0.00,,OVC090,0.00,VWS V14.01,2013-06-01 19:25:00,
2013-06-01 14:30:00,65.5,57.7,29.64,NW,306,2.0,11.0,76,0.00,,OVC090,0.00,VWS V14.01,2013-06-01 19:30:00,
2013-06-01 14:35:00,66.0,57.9,29.64,NW,310,0.0,4.0,75,0.00,,OVC090,0.00,VWS V14.01,2013-06-01 19:35:00,
2013-06-01 14:40:00,66.2,58.0,29.64,NW,321,2.0,5.0,75,0.00,,OVC040,0.00,VWS V14.01,2013-06-01 19:40:00,
2013-06-01 14:45:00,66.5,58.3,29.64,West,274,5.0,9.0,75,0.00,,OVC040,0.00,VWS V14.01,2013-06-01 19:45:00,
2013-06-01 14:50:00,66.0,57.9,29.64,WNW,297,2.0,9.0,75,0.00,,OVC040,0.00,VWS V14.01,2013-06-01 19:50:00,
2013-06-01 14:55:00,65.7,57.9,29.64,NW,319,2.0,9.0,76,0.00,,OVC040,0.00,VWS V14.01,2013-06-01 19:55:00,
2013-06-01 15:00:00,66.2,58.8,29.64,WNW,289,3.0,9.0,77,0.00,,OVC040,0.00,VWS V14.01,2013-06-01 20:00:00,
2013-06-01 15:05:00,66.5,58.3,29.64,NW,316,1.0,3.0,75,0.00,,OVC034,0.00,VWS V14.01,2013-06-01 20:05:00,
2013-06-01 15:10:00,66.7,58.9,29.64,West,278,2.0,4.0,76,0.00,,OVC034,0.00,VWS V14.01,2013-06-01 20:10:00,
2013-06-01 15:15:00,66.8,58.3,29.64,NW,308,1.0,6.0,74,0.00,,OVC034,0.00,VWS V14.01,2013-06-01 20:15:00,
2013-06-01 15:20:00,67.4,59.2,29.64,WNW,302,2.0,7.0,75,0.00,,OVC034,0.00,VWS V14.01,2013-06-01 20:20:00,
2013-06-01 15:25:00,67.6,59.8,29.64,NNW,333,3.0,7.0,76,0.00,,OVC034,0.00,VWS V14.01,2013-06-01 20:25:00,
2013-06-01 15:30:00,67.7,59.1,29.64,NW,315,1.0,7.0,74,0.00,,OVC034,0.00,VWS V14.01,2013-06-01 20:30:00,
2013-06-01 15:35:00,67.7,58.4,29.64,WNW,289,1.0,11.0,72,0.00,,OVC034,0.00,VWS V14.01,2013-06-01 20:35:00,
2013-06-01 15:40:00,68.4,59.8,29.64,North,354,1.0,11.0,74,0.00,,OVC034,0.00,VWS V14.01,2013-06-01 20:40:00,
2013-06-01 15:45:00,68.8,59.8,29.65,NNE,15,3.0,11.0,73,0.00,,OVC034,0.00,VWS V14.01,2013-06-01 20:45:00,
2013-06-01 15:50:00,69.2,59.8,29.65,East,94,1.0,11.0,72,0.00,,BKN085,0.00,VWS V14.01,2013-06-01 20:50:00,
2013-06-01 15:55:00,69.2,59.8,29.65,North,3,2.0,11.0,72,0.00,,BKN080,0.00,VWS V14.01,2013-06-01 20:55:00,
2013-06-01 16:00:00,69.3,59.1,29.65,NNE,27,1.0,11.0,70,0.00,,SCT080,0.00,VWS V14.01,2013-06-01 21:00:00,
2013-06-01 16:05:00,69.3,58.3,29.65,NNW,333,1.0,4.0,68,0.00,,SCT080,0.00,VWS V14.01,2013-06-01 21:05:00,
2013-06-01 16:10:00,69.3,59.5,29.65,NNE,18,5.0,5.0,71,0.00,,SCT080,0.00,VWS V14.01,2013-06-01 21:10:00,
2013-06-01 16:15:00,69.3,58.3,29.65,North,11,2.0,5.0,68,0.00,,SCT080,0.00,VWS V14.01,2013-06-01 21:15:00,
2013-06-01 16:20:00,68.5,57.9,29.65,NW,311,1.0,5.0,69,0.00,,SCT080,0.00,VWS V14.01,2013-06-01 21:20:00,
2013-06-01 16:25:00,66.8,59.0,29.65,West,270,6.0,10.0,76,0.00,,SCT080,0.00,VWS V14.01,2013-06-01 21:25:00,
2013-06-01 16:30:00,65.9,59.6,29.65,NW,325,5.0,10.0,80,0.00,,SCT080,0.00,VWS V14.01,2013-06-01 21:30:00,
2013-06-01 16:35:00,66.2,59.9,29.65,WNW,295,3.0,9.0,80,0.00,,SCT080,0.00,VWS V14.01,2013-06-01 21:35:00,
2013-06-01 16:40:00,66.3,59.6,29.66,NNW,342,6.0,10.0,79,0.00,,SCT080,0.00,VWS V14.01,2013-06-01 21:40:00,
2013-06-01 16:45:00,66.0,59.0,29.66,NW,316,4.0,13.0,78,0.00,,SCT080,0.00,VWS V14.01,2013-06-01 21:45:00,
2013-06-01 16:50:00,66.2,59.2,29.66,NW,325,4.0,13.0,78,0.00,,SCT080,0.00,VWS V14.01,2013-06-01 21:50:00,
2013-06-01 16:55:00,66.2,59.2,29.66,NW,314,3.0,13.0,78,0.00,,SCT080,0.00,VWS V14.01,2013-06-01 21:55:00,
2013-06-01 17:00:00,66.0,59.0,29.66,NW,316,4.0,13.0,78,0.00,,SCT080,0.00,VWS V14.01,2013-06-01 22:00:00,
2013-06-01 17:04:00,65.6,58.6,29.67,WNW,294,4.0,10.0,78,0.00,,BKN047,0.00,VWS V14.01,2013-06-01 22:04:00,
2013-06-01 17:09:00,65.8,58.8,29.66,NW,304,4.0,11.0,78,0.00,,BKN047,0.00,VWS V14.01,2013-06-01 22:09:00,
2013-06-01 17:14:00,66.1,59.0,29.67,NW,325,3.0,11.0,78,0.00,,BKN037,0.00,VWS V14.01,2013-06-01 22:14:00,
2013-06-01 17:19:00,66.6,59.2,29.67,NE,37,4.0,11.0,77,0.00,,BKN037,0.00,VWS V14.01,2013-06-01 22:19:00,
2013-06-01 17:24:00,67.3,58.7,29.67,WNW,294,5.0,11.0,74,0.00,,BKN038,0.00,VWS V14.01,2013-06-01 22:24:00,
2013-06-01 17:29:00,67.0,58.8,29.67,NW,311,2.0,11.0,75,0.00,,OVC060,0.00,VWS V14.01,2013-06-01 22:29:00,
2013-06-01 17:34:00,67.1,58.5,29.67,NW,307,5.0,9.0,74,0.00,,OVC060,0.00,VWS V14.01,2013-06-01 22:34:00,
2013-06-01 17:39:00,66.2,58.0,29.68,NNE,19,2.0,10.0,75,0.00,,OVC060,0.00,VWS V14.01,2013-06-01 22:39:00,
2013-06-01 17:44:00,65.7,58.3,29.68,NNW,345,5.0,10.0,77,0.00,,OVC060,0.00,VWS V14.01,2013-06-01 22:44:00,
2013-06-01 17:49:00,65.2,58.2,29.69,NNW,347,5.0,10.0,78,0.00,,OVC060,0.00,VWS V14.01,2013-06-01 22:49:00,
2013-06-01 17:54:00,64.7,58.4,29.69,NW,326,7.0,10.0,80,0.00,,OVC060,0.00,VWS V14.01,2013-06-01 22:54:00,
2013-06-01 17:59:00,64.0,58.1,29.69,NE,44,6.0,10.0,81,0.00,,OVC060,0.00,VWS V14.01,2013-06-01 22:59:00,
2013-06-01 18:04:00,63.3,58.4,29.69,NNE,16,3.0,9.0,84,0.00,,BKN049,0.00,VWS V14.01,2013-06-01 23:04:00,
2013-06-01 18:09:00,62.7,58.1,29.69,North,11,4.0,9.0,85,0.00,,BKN049,0.00,VWS V14.01,2013-06-01 23:09:00,
2013-06-01 18:14:00,62.4,58.2,29.69,NW,323,5.0,10.0,86,0.00,,BKN049,0.00,VWS V14.01,2013-06-01 23:14:00,
2013-06-01 18:19:00,62.3,58.7,29.70,North,360,3.0,10.0,88,0.00,,BKN049,0.00,VWS V14.01,2013-06-01 23:19:00,
2013-06-01 18:24:00,62.4,59.1,29.70,WNW,291,3.0,10.0,89,0.00,,BKN049,0.00,VWS V14.01,2013-06-01 23:24:00,
2013-06-01 18:29:00,62.5,58.6,29.70,ENE,72,5.0,10.0,87,0.00,,BKN049,0.00,VWS V14.01,2013-06-01 23:29:00,
2013-06-01 18:34:00,62.5,58.3,29.70,NW,325,6.0,10.0,86,0.00,,BKN049,0.00,VWS V14.01,2013-06-01 23:34:00,
2013-06-01 18:39:00,62.4,58.2,29.70,North,360,8.0,13.0,86,0.00,,BKN049,0.00,VWS V14.01,2013-06-01 23:39:00,
2013-06-01 18:44:00,62.5,57.9,29.70,NNE,28,4.0,13.0,85,0.00,,BKN049,0.00,VWS V14.01,2013-06-01 23:44:00,
2013-06-01 18:49:00,62.6,58.0,29.71,NE,37,8.0,14.0,85,0.00,,BKN049,0.00,VWS V14.01,2013-06-01 23:49:00,
2013-06-01 18:54:00,62.8,58.2,29.71,NNE,30,4.0,14.0,85,0.00,,BKN049,0.00,VWS V14.01,2013-06-01 23:54:00,
2013-06-01 18:59:00,62.8,57.9,29.71,NNE,15,5.0,15.0,84,0.00,,OVC090,0.00,VWS V14.01,2013-06-01 23:59:00,
2013-06-01 19:04:00,62.7,57.8,29.71,NW,323,4.0,11.0,84,0.00,,OVC090,0.00,VWS V14.01,2013-06-02 00:04:00,
2013-06-01 19:09:00,62.7,57.8,29.71,NNE,32,6.0,14.0,84,0.00,,OVC090,0.00,VWS V14.01,2013-06-02 00:09:00,
2013-06-01 19:14:00,62.7,57.8,29.72,NE,37,5.0,14.0,84,0.00,,OVC090,0.00,VWS V14.01,2013-06-02 00:14:00,
2013-06-01 19:19:00,62.7,57.8,29.72,NNW,348,5.0,14.0,84,0.00,,OVC090,0.00,VWS V14.01,2013-06-02 00:19:00,
2013-06-01 19:24:00,62.5,57.6,29.72,NE,41,5.0,14.0,84,0.00,,OVC090,0.00,VWS V14.01,2013-06-02 00:24:00,
2013-06-01 19:29:00,62.4,57.5,29.72,NNE,13,3.0,14.0,84,0.00,,OVC090,0.00,VWS V14.01,2013-06-02 00:29:00,
2013-06-01 19:34:00,62.4,57.8,29.72,WNW,296,2.0,6.0,85,0.00,,OVC090,0.00,VWS V14.01,2013-06-02 00:34:00,
2013-06-01 19:39:00,62.3,57.7,29.72,NNW,329,3.0,7.0,85,0.00,,OVC090,0.00,VWS V14.01,2013-06-02 00:39:00,
2013-06-01 19:44:00,62.2,57.6,29.73,North,5,6.0,7.0,85,0.00,,OVC090,0.00,VWS V14.01,2013-06-02 00:44:00,
2013-06-01 19:49:00,62.1,57.5,29.73,NNE,13,3.0,7.0,85,0.00,,OVC090,0.00,VWS V14.01,2013-06-02 00:49:00,
2013-06-01 19:54:00,62.0,57.5,29.73,NW,326,1.0,7.0,85,0.00,,OVC090,0.00,VWS V14.01,2013-06-02 00:54:00,
2013-06-01 19:59:00,61.9,57.0,29.73,NE,42,5.0,9.0,84,0.00,,OVC026,0.00,VWS V14.01,2013-06-02 00:59:00,
2013-06-01 20:04:00,61.7,57.2,29.74,North,6,6.0,8.0,85,0.00,,OVC026,0.00,VWS V14.01,2013-06-02 01:04:00,
2013-06-01 20:09:00,61.6,56.4,29.74,East,81,4.0,9.0,83,0.00,,OVC026,0.00,VWS V14.01,2013-06-02 01:09:00,
2013-06-01 20:14:00,61.4,56.5,29.74,NNE,15,8.0,9.0,84,0.00,,OVC026,0.00,VWS V14.01,2013-06-02 01:14:00,
2013-06-01 20:19:00,61.3,56.4,29.74,North,9,3.0,10.0,84,0.00,,OVC026,0.00,VWS V14.01,2013-06-02 01:19:00,
2013-06-01 20:24:00,61.2,56.0,29.74,ENE,75,6.0,10.0,83,0.00,,OVC026,0.00,VWS V14.01,2013-06-02 01:24:00,
2013-06-01 20:29:00,61.0,55.8,29.75,NW,322,2.0,10.0,83,0.00,,OVC026,0.00,VWS V14.01,2013-06-02 01:29:00,
2013-06-01 20:34:00,60.9,55.7,29.75,North,356,3.0,12.0,83,0.00,,OVC026,0.00,VWS V14.01,2013-06-02 01:34:00,
2013-06-01 20:39:00,60.7,55.2,29.75,North,11,2.0,12.0,82,0.00,,OVC026,0.00,VWS V14.01,2013-06-02 01:39:00,
2013-06-01 20:44:00,60.6,55.1,29.75,WNW,300,3.0,12.0,82,0.00,,OVC026,0.00,VWS V14.01,2013-06-02 01:44:00,
2013-06-01 20:49:00,60.5,55.0,29.75,NNE,16,5.0,12.0,82,0.00,,OVC026,0.00,VWS V14.01,2013-06-02 01:49:00,
2013-06-01 20:54:00,60.5,55.0,29.76,NNW,335,5.0,12.0,82,0.00,,OVC026,0.00,VWS V14.01,2013-06-02 01:54:00,
2013-06-01 20:59:00,60.3,54.8,29.76,NNW,331,7.0,12.0,82,0.00,,OVC019,0.00,VWS V14.01,2013-06-02 01:59:00,
2013-06-01 21:04:00,60.2,54.7,29.76,NNW,340,4.0,9.0,82,0.00,,OVC019,0.00,VWS V14.01,2013-06-02 02:04:00,
2013-06-01 21:09:00,60.1,54.3,29.76,NNE,32,6.0,10.0,81,0.00,,OVC019,0.00,VWS V14.01,2013-06-02 02:09:00,
2013-06-01 21:14:00,59.8,54.0,29.77,NE,36,8.0,10.0,81,0.00,,OVC019,0.00,VWS V14.01,2013-06-02 02:14:00,
2013-06-01 21:19:00,59.5,53.7,29.77,North,349,3.0,13.0,81,0.00,,OVC019,0.00,VWS V14.01,2013-06-02 02:19:00,
2013-06-01 21:24:00,59.4,53.6,29.78,North,7,7.0,13.0,81,0.00,,OVC019,0.00,VWS V14.01,2013-06-02 02:24:00,
2013-06-01 21:29:00,59.1,53.3,29.78,NNE,21,7.0,13.0,81,0.00,,OVC019,0.00,VWS V14.01,2013-06-02 02:29:00,
2013-06-01 21:34:00,58.9,53.1,29.78,NNE,27,3.0,12.0,81,0.00,,OVC019,0.00,VWS V14.01,2013-06-02 02:34:00,
2013-06-01 21:39:00,58.8,53.3,29.78,NNE,29,3.0,12.0,82,0.00,,OVC019,0.00,VWS V14.01,2013-06-02 02:39:00,
2013-06-01 21:44:00,58.6,52.8,29.79,North,357,10.0,16.0,81,0.00,,OVC019,0.00,VWS V14.01,2013-06-02 02:44:00,
2013-06-01 21:49:00,58.4,52.6,29.79,North,353,7.0,16.0,81,0.00,,OVC019,0.00,VWS V14.01,2013-06-02 02:49:00,
2013-06-01 21:54:00,58.3,53.2,29.80,NNE,13,7.0,16.0,83,0.00,,OVC019,0.00,VWS V14.01,2013-06-02 02:54:00,
2013-06-01 21:59:00,58.2,53.1,29.80,NNE,19,2.0,16.0,83,0.00,,OVC019,0.00,VWS V14.01,2013-06-02 02:59:00,
2013-06-01 22:04:00,58.1,53.0,29.80,ENE,68,4.0,13.0,83,0.00,,OVC019,0.00,VWS V14.01,2013-06-02 03:04:00,
2013-06-01 22:09:00,57.8,52.7,29.81,North,1,11.0,13.0,83,0.00,,OVC019,0.00,VWS V14.01,2013-06-02 03:09:00,
2013-06-01 22:14:00,57.5,52.4,29.81,North,4,7.0,17.0,83,0.00,,OVC019,0.00,VWS V14.01,2013-06-02 03:14:00,
2013-06-01 22:19:00,57.2,52.1,29.81,North,8,5.0,17.0,83,0.00,,OVC019,0.00,VWS V14.01,2013-06-02 03:19:00,
2013-06-01 22:24:00,57.0,52.2,29.81,North,9,3.0,17.0,84,0.00,,OVC019,0.00,VWS V14.01,2013-06-02 03:24:00,
2013-06-01 22:29:00,56.9,52.4,29.82,NNW,335,3.0,17.0,85,0.00,,OVC019,0.00,VWS V14.01,2013-06-02 03:29:00,
2013-06-01 22:34:00,56.7,52.2,29.82,NNE,28,4.0,7.0,85,0.00,,OVC019,0.00,VWS V14.01,2013-06-02 03:34:00,
2013-06-01 22:39:00,56.3,52.2,29.82,NNW,346,3.0,9.0,86,0.00,,OVC019,0.00,VWS V14.01,2013-06-02 03:39:00,
2013-06-01 22:44:00,56.1,51.7,29.82,NE,44,9.0,12.0,85,0.00,,OVC019,0.00,VWS V14.01,2013-06-02 03:44:00,
2013-06-01 22:49:00,55.9,51.5,29.82,North,6,6.0,15.0,85,0.00,,OVC019,0.00,VWS V14.01,2013-06-02 03:49:00,
2013-06-01 22:54:00,55.6,51.2,29.82,NE,52,2.0,15.0,85,0.00,,OVC019,0.00,VWS V14.01,2013-06-02 03:54:00,
2013-06-01 22:59:00,55.5,51.1,29.82,North,356,8.0,15.0,85,0.00,,OVC016,0.00,VWS V14.01,2013-06-02 03:59:00,
2013-06-01 23:01:00,55.4,50.7,29.83,NE,51,2.0,2.0,84,0.00,,OVC016,0.00,VWS V14.01,2013-06-02 04:01:00,
2013-06-01 23:06:00,55.3,50.2,29.82,NNW,330,4.0,13.0,83,0.00,,OVC016,0.00,VWS V14.01,2013-06-02 04:06:00,
2013-06-01 23:11:00,55.2,49.8,29.82,NNE,15,7.0,13.0,82,0.00,,OVC016,0.00,VWS V14.01,2013-06-02 04:11:00,
2013-06-01 23:16:00,55.1,49.7,29.83,NNW,336,6.0,18.0,82,0.00,,OVC016,0.00,VWS V14.01,2013-06-02 04:16:00,
2013-06-01 23:21:00,55.1,49.7,29.83,NNW,328,6.0,18.0,82,0.00,,OVC016,0.00,VWS V14.01,2013-06-02 04:21:00,
2013-06-01 23:26:00,55.0,49.6,29.83,NNE,13,6.0,18.0,82,0.00,,OVC016,0.00,VWS V14.01,2013-06-02 04:26:00,
2013-06-01 23:31:00,54.9,49.5,29.83,NNW,340,2.0,6.0,82,0.00,,OVC016,0.00,VWS V14.01,2013-06-02 04:31:00,
2013-06-01 23:36:00,54.9,49.8,29.84,NE,38,2.0,7.0,83,0.00,,OVC016,0.00,VWS V14.01,2013-06-02 04:36:00,
2013-06-01 23:41:00,54.7,49.3,29.84,North,7,7.0,10.0,82,0.00,,OVC016,0.00,VWS V14.01,2013-06-02 04:41:00,
2013-06-01 23:46:00,54.4,48.7,29.85,North,353,5.0,15.0,81,0.00,,OVC016,0.00,VWS V14.01,2013-06-02 04:46:00,
2013-06-01 23:51:00,54.2,48.5,29.86,NNW,328,3.0,15.0,81,0.00,,OVC016,0.00,VWS V14.01,2013-06-02 04:51:00,
2013-06-01 23:56:00,54.0,48.0,29.86,NNE,15,3.0,15.0,80,0.00,,OVC016,0.00,VWS V14.01,2013-06-02 04:56:00,